| time (UTC) | temp F | wind direction | speed MPH | gust MPH | rain 1hr in | rain 24hr in | rain mn in | humidity % | barometer mb |
| 20260904151522 | 62 | 101 | 7.0 | 11.0 | 0.12 | 0.41 | 0.41 | 99 | 1011.4 |
| 20260904150026 | 62 | 105 | 6.0 | 12.0 | 0.15 | 0.39 | 0.39 | 99 | 1011.6 |
| 20260904144518 | 62 | 94 | 5.0 | 13.0 | 0.15 | 0.36 | 0.36 | 99 | 1011.7 |
| 20260904143017 | 62 | 93 | 9.0 | 16.0 | 0.13 | 0.33 | 0.33 | 99 | 1012.0 |
| 20260904141514 | 62 | 97 | 5.0 | 10.0 | 0.09 | 0.28 | 0.28 | 99 | 1012.4 |
| 20260904140012 | 62 | 87 | 6.0 | 11.0 | 0.05 | 0.24 | 0.24 | 98 | 1012.7 |
| 20260904134510 | 62 | 103 | 4.0 | 11.0 | 0.05 | 0.21 | 0.21 | 98 | 1012.9 |
| 20260904133007 | 62 | 115 | 3.0 | 6.0 | 0.05 | 0.20 | 0.20 | 99 | 1013.2 |
| 20260904131506 | 62 | 102 | 4.0 | 9.0 | 0.07 | 0.20 | 0.20 | 99 | 1013.3 |
| 20260904130006 | 62 | 55 | 3.0 | 9.0 | 0.10 | 0.19 | 0.19 | 98 | 1013.5 |
| 20260904124505 | 62 | 94 | 5.0 | 9.0 | 0.09 | 0.16 | 0.16 | 98 | 1013.9 |
| 20260904123105 | 62 | 90 | 5.0 | 10.0 | 0.10 | 0.15 | 0.15 | 98 | 1014.0 |
| 20260904121601 | 62 | 101 | 1.0 | 7.0 | 0.11 | 0.13 | 0.13 | 98 | 1014.0 |
| 20260904114559 | 62 | 103 | 1.0 | 4.0 | 0.07 | 0.07 | 0.07 | 97 | 1014.2 |
| 20260904113058 | 63 | 140 | 1.0 | 7.0 | 0.05 | 0.05 | 0.05 | 96 | 1014.2 |
| 20260904111556 | 63 | 133 | 2.0 | 8.0 | 0.02 | 0.02 | 0.02 | 95 | 1014.1 |
| 20260904110057 | 63 | 130 | 1.0 | 9.0 | 0.00 | 0.00 | 0.00 | 94 | 1014.2 |
| 20260904104603 | 63 | 126 | 4.0 | 10.0 | 0.00 | 0.00 | 0.00 | 93 | 1014.2 |
| 20260904103105 | 63 | 125 | 2.0 | 7.0 | 0.00 | 0.00 | 0.00 | 94 | 1014.1 |
| 20260904101551 | 62 | 144 | 1.0 | 4.0 | 0.00 | 0.00 | 0.00 | 95 | 1014.2 |
| 20260904100050 | 61 | 85 | 1.0 | 4.0 | 0.00 | 0.00 | 0.00 | 97 | 1014.2 |
| 20260904094549 | 61 | 159 | 0.0 | 3.0 | 0.00 | 0.00 | 0.00 | 98 | 1014.4 |
| 20260904093048 | 60 | 124 | 0.0 | 2.0 | 0.00 | 0.00 | 0.00 | 99 | 1014.3 |
| 20260904091603 | 60 | 129 | 0.0 | 3.0 | 0.00 | 0.00 | 0.00 | 99 | 1014.5 |
| 20260904090045 | 59 | 227 | 0.0 | 0.0 | 0.00 | 0.00 | 0.00 | 99 | 1014.6 |
| 20260904084544 | 59 | 227 | 0.0 | 2.0 | 0.00 | 0.00 | 0.00 | 99 | 1014.7 |
| 20260904083102 | 59 | 227 | 0.0 | 1.0 | 0.00 | 0.00 | 0.00 | 99 | 1014.7 |
| 20260904081541 | 59 | 227 | 0.0 | 0.0 | 0.00 | 0.00 | 0.00 | 99 | 1015.0 |
| 20260904080040 | 59 | 227 | 0.0 | 2.0 | 0.00 | 0.00 | 0.00 | 99 | 1015.1 |
| 20260904074559 | 59 | 227 | 0.0 | 0.0 | 0.00 | 0.00 | 0.00 | 98 | 1015.2 |
| 20260904073038 | 59 | 227 | 0.0 | 0.0 | 0.00 | 0.00 | 0.00 | 98 | 1015.4 |
| 20260904071534 | 59 | 227 | 0.0 | 0.0 | 0.00 | 0.00 | 0.00 | 98 | 1015.7 |
| 20260904070033 | 60 | 227 | 0.0 | 0.0 | 0.00 | 0.00 | 0.00 | 98 | 1016.0 |
| 20260904064535 | 60 | 227 | 0.0 | 0.0 | 0.00 | 0.00 | 0.00 | 98 | 1016.2 |
| 20260904063029 | 60 | 227 | 0.0 | 0.0 | 0.00 | 0.00 | 0.00 | 98 | 1016.4 |
| 20260904061537 | 60 | 227 | 0.0 | 0.0 | 0.00 | 0.00 | 0.00 | 98 | 1016.6 |
| 20260904060028 | 60 | 227 | 0.0 | 2.0 | 0.00 | 0.00 | 0.00 | 97 | 1017.0 |
| 20260904054528 | 60 | 133 | 0.0 | 0.0 | 0.00 | 0.00 | 0.00 | 97 | 1016.9 |
| 20260904053022 | 60 | 133 | 0.0 | 0.0 | 0.00 | 0.00 | 0.00 | 97 | 1017.2 |
| 20260904051521 | 61 | 133 | 0.0 | 0.0 | 0.00 | 0.00 | 0.00 | 96 | 1017.2 |
| 20260904050019 | 61 | 133 | 0.0 | 0.0 | 0.00 | 0.00 | 0.00 | 96 | 1017.5 |
| 20260904044519 | 61 | 133 | 0.0 | 1.0 | 0.00 | 0.00 | 0.00 | 96 | 1017.6 |
| 20260904043017 | 61 | 133 | 0.0 | 0.0 | 0.00 | 0.00 | 0.00 | 95 | 1017.7 |
| 20260904041516 | 61 | 133 | 0.0 | 0.0 | 0.00 | 0.00 | 0.00 | 94 | 1017.7 |
| 20260904040013 | 61 | 133 | 0.0 | 1.0 | 0.00 | 0.00 | 0.00 | 94 | 1017.8 |
| 20260904034510 | 62 | 134 | 0.0 | 3.0 | 0.00 | 0.00 | 0.00 | 93 | 1018.1 |
| 20260904033008 | 62 | 138 | 0.0 | 4.0 | 0.00 | 0.00 | 0.00 | 93 | 1018.2 |
| 20260904031507 | 62 | 144 | 2.0 | 8.0 | 0.00 | 0.00 | 0.00 | 93 | 1018.3 |
| 20260904030006 | 62 | 139 | 2.0 | 8.0 | 0.00 | 0.00 | 0.00 | 93 | 1018.5 |
| 20260904024504 | 62 | 94 | 2.0 | 7.0 | 0.00 | 0.00 | 0.00 | 94 | 1018.5 |
| 20260904023002 | 62 | 138 | 0.0 | 7.0 | 0.00 | 0.00 | 0.00 | 93 | 1018.5 |
| 20260904021501 | 62 | 111 | 2.0 | 7.0 | 0.00 | 0.00 | 0.00 | 93 | 1018.8 |
| 20260904020100 | 62 | 144 | 1.0 | 8.0 | 0.00 | 0.00 | 0.00 | 93 | 1018.9 |
| 20260904014638 | 62 | 152 | 2.0 | 6.0 | 0.00 | 0.00 | 0.00 | 93 | 1018.9 |
| 20260904013057 | 62 | 148 | 1.0 | 5.0 | 0.00 | 0.00 | 0.00 | 94 | 1019.1 |
| 20260904011607 | 62 | 151 | 1.0 | 5.0 | 0.00 | 0.00 | 0.00 | 94 | 1019.2 |
| 20260904004556 | 61 | 167 | 1.0 | 9.0 | 0.00 | 0.00 | 0.00 | 97 | 1019.6 |
| 20260904003101 | 60 | 192 | 1.0 | 6.0 | 0.00 | 0.00 | 0.00 | 97 | 1019.5 |
| 20260904001552 | 60 | 108 | 0.0 | 0.0 | 0.00 | 0.00 | 0.00 | 96 | 1019.7 |
| 20260904000052 | 61 | 121 | 0.0 | 1.0 | 0.00 | 0.00 | 0.00 | 96 | 1019.9 |
| 20260903234550 | 61 | 121 | 0.0 | 0.0 | 0.00 | 0.00 | 0.00 | 95 | 1019.9 |
| 20260903233103 | 61 | 121 | 0.0 | 1.0 | 0.00 | 0.00 | 0.00 | 94 | 1020.0 |
| 20260903231546 | 62 | 121 | 0.0 | 2.0 | 0.00 | 0.00 | 0.00 | 94 | 1019.9 |
| 20260903230049 | 62 | 121 | 0.0 | 0.0 | 0.00 | 0.00 | 0.00 | 93 | 1020.0 |
| 20260903224540 | 63 | 121 | 1.0 | 6.0 | 0.00 | 0.00 | 0.00 | 92 | 1020.0 |
| 20260903223040 | 63 | 105 | 0.0 | 3.0 | 0.00 | 0.00 | 0.00 | 92 | 1020.0 |
| 20260903221539 | 63 | 95 | 1.0 | 6.0 | 0.00 | 0.00 | 0.00 | 91 | 1020.1 |
| 20260903220049 | 64 | 103 | 1.0 | 6.0 | 0.00 | 0.00 | 0.00 | 90 | 1020.3 |
| 20260903214538 | 64 | 84 | 0.0 | 3.0 | 0.00 | 0.00 | 0.00 | 92 | 1020.3 |
| 20260903213035 | 64 | 120 | 4.0 | 9.0 | 0.00 | 0.00 | 0.00 | 90 | 1020.4 |
| 20260903211535 | 64 | 142 | 1.0 | 7.0 | 0.00 | 0.00 | 0.00 | 88 | 1020.5 |
| 20260903210035 | 65 | 98 | 6.0 | 10.0 | 0.00 | 0.00 | 0.00 | 87 | 1020.4 |
| 20260903204534 | 66 | 146 | 5.0 | 11.0 | 0.00 | 0.00 | 0.00 | 84 | 1020.4 |
| 20260903203033 | 67 | 160 | 3.0 | 9.0 | 0.00 | 0.00 | 0.00 | 82 | 1020.5 |
| 20260903201533 | 67 | 143 | 2.0 | 9.0 | 0.00 | 0.00 | 0.00 | 84 | 1020.6 |
| 20260903200031 | 66 | 89 | 3.0 | 6.0 | 0.00 | 0.00 | 0.00 | 87 | 1020.6 |
| 20260903194530 | 66 | 86 | 4.0 | 6.0 | 0.00 | 0.00 | 0.00 | 89 | 1020.8 |
| 20260903193028 | 65 | 88 | 2.0 | 4.0 | 0.00 | 0.00 | 0.00 | 88 | 1021.0 |
| 20260903191527 | 65 | 107 | 2.0 | 8.0 | 0.00 | 0.00 | 0.00 | 86 | 1021.1 |
| 20260903190028 | 68 | 134 | 8.0 | 12.0 | 0.00 | 0.00 | 0.00 | 76 | 1021.1 |
| 20260903184526 | 68 | 101 | 3.0 | 11.0 | 0.00 | 0.00 | 0.00 | 78 | 1021.0 |
| 20260903183025 | 69 | 108 | 8.0 | 15.0 | 0.00 | 0.00 | 0.00 | 73 | 1021.1 |
| 20260903181524 | 69 | 126 | 6.0 | 11.0 | 0.00 | 0.00 | 0.00 | 74 | 1021.1 |
| 20260903180030 | 69 | 114 | 7.0 | 13.0 | 0.00 | 0.00 | 0.00 | 72 | 1021.2 |
| 20260903174523 | 70 | 107 | 7.0 | 14.0 | 0.00 | 0.00 | 0.00 | 71 | 1021.1 |
| 20260903173022 | 71 | 171 | 7.0 | 14.0 | 0.00 | 0.00 | 0.00 | 69 | 1021.3 |
| 20260903171528 | 70 | 143 | 5.0 | 14.0 | 0.00 | 0.00 | 0.00 | 72 | 1021.3 |
| 20260903170034 | 71 | 131 | 8.0 | 14.0 | 0.00 | 0.00 | 0.00 | 69 | 1021.3 |
| 20260903164522 | 71 | 112 | 3.0 | 13.0 | 0.00 | 0.00 | 0.00 | 70 | 1021.4 |
| 20260903163023 | 71 | 153 | 8.0 | 15.0 | 0.00 | 0.00 | 0.00 | 70 | 1021.5 |
| 20260903161516 | 70 | 161 | 6.0 | 14.0 | 0.00 | 0.00 | 0.00 | 71 | 1021.5 |
| 20260903160014 | 70 | 169 | 7.0 | 13.0 | 0.00 | 0.00 | 0.00 | 71 | 1021.8 |
| 20260903154513 | 69 | 115 | 9.0 | 13.0 | 0.00 | 0.00 | 0.00 | 72 | 1022.1 |
| 20260903153011 | 70 | 205 | 5.0 | 15.0 | 0.00 | 0.00 | 0.00 | 72 | 1022.1 |